Time,TemperatureF,DewpointF,PressureIn,WindDirection,WindDirectionDegrees,WindSpeedMPH,WindSpeedGustMPH,Humidity,HourlyPrecipIn,Conditions,Clouds,dailyrainin,SoftwareType,DateUTC
2013-10-08 00:02:00,38.6,24.2,29.96,SSE,157,2.0,2.0,56,0.00,,,0.00,Wunderground v.1.15,2013-10-08 06:02:00,
2013-10-08 00:07:00,38.2,23.4,29.96,SE,134,0.0,2.0,55,0.00,,,0.00,Wunderground v.1.15,2013-10-08 06:07:00,
2013-10-08 00:12:00,38.0,23.3,29.96,SSE,163,0.0,1.0,55,0.00,,,0.00,Wunderground v.1.15,2013-10-08 06:12:00,
2013-10-08 00:18:00,37.9,22.7,29.95,SE,124,0.0,3.0,54,0.00,,,0.00,Wunderground v.1.15,2013-10-08 06:18:00,
2013-10-08 00:23:00,37.8,23.1,29.95,ESE,115,0.0,1.0,55,0.00,,,0.00,Wunderground v.1.15,2013-10-08 06:23:00,
2013-10-08 00:28:00,37.7,23.4,29.95,ENE,71,1.0,1.0,56,0.00,,,0.00,Wunderground v.1.15,2013-10-08 06:28:00,
2013-10-08 00:33:00,37.6,23.3,29.95,SE,134,1.0,3.0,56,0.00,,,0.00,Wunderground v.1.15,2013-10-08 06:33:00,
2013-10-08 00:38:00,37.7,23.0,29.95,ESE,117,0.0,3.0,55,0.00,,,0.00,Wunderground v.1.15,2013-10-08 06:38:00,
2013-10-08 00:44:00,37.4,23.1,29.95,SE,125,0.0,2.0,56,0.00,,,0.00,Wunderground v.1.15,2013-10-08 06:44:00,
2013-10-08 00:49:00,37.2,23.4,29.95,SE,140,0.0,2.0,57,0.00,,,0.00,Wunderground v.1.15,2013-10-08 06:49:00,
2013-10-08 00:54:00,36.9,23.1,29.95,SE,140,0.0,3.0,57,0.00,,,0.00,Wunderground v.1.15,2013-10-08 06:54:00,
2013-10-08 00:59:00,36.5,23.5,29.95,SE,140,0.0,3.0,59,0.00,,,0.00,Wunderground v.1.15,2013-10-08 06:59:00,
2013-10-08 01:04:00,36.2,23.6,29.94,SE,140,0.0,1.0,60,0.00,,,0.00,Wunderground v.1.15,2013-10-08 07:04:00,
2013-10-08 01:10:00,35.9,23.4,29.94,SE,140,0.0,0.0,60,0.00,,,0.00,Wunderground v.1.15,2013-10-08 07:10:00,
2013-10-08 01:15:00,35.7,23.6,29.94,SE,140,0.0,0.0,61,0.00,,,0.00,Wunderground v.1.15,2013-10-08 07:15:00,
2013-10-08 01:20:00,35.4,23.7,29.93,SE,140,0.0,0.0,62,0.00,,,0.00,Wunderground v.1.15,2013-10-08 07:20:00,
2013-10-08 01:25:00,35.0,23.7,29.93,SE,140,0.0,3.0,63,0.00,,,0.00,Wunderground v.1.15,2013-10-08 07:25:00,
2013-10-08 01:30:00,34.7,24.1,29.94,SE,140,1.0,1.0,65,0.00,,,0.00,Wunderground v.1.15,2013-10-08 07:30:00,
2013-10-08 01:35:00,34.4,23.8,29.94,SE,144,0.0,1.0,65,0.00,,,0.00,Wunderground v.1.15,2013-10-08 07:35:00,
2013-10-08 01:41:00,34.3,24.1,29.93,SE,144,0.0,0.0,66,0.00,,,0.00,Wunderground v.1.15,2013-10-08 07:41:00,
2013-10-08 01:46:00,34.1,23.9,29.93,SE,144,0.0,1.0,66,0.00,,,0.00,Wunderground v.1.15,2013-10-08 07:46:00,
2013-10-08 01:51:00,34.1,23.9,29.93,SE,144,0.0,0.0,66,0.00,,,0.00,Wunderground v.1.15,2013-10-08 07:51:00,
2013-10-08 01:56:00,33.9,24.1,29.93,SE,144,0.0,0.0,67,0.00,,,0.00,Wunderground v.1.15,2013-10-08 07:56:00,
2013-10-08 02:01:00,34.0,23.8,29.93,SE,144,1.0,3.0,66,0.00,,,0.00,Wunderground v.1.15,2013-10-08 08:01:00,
2013-10-08 02:06:00,34.1,23.9,29.93,SE,144,0.0,3.0,66,0.00,,,0.00,Wunderground v.1.15,2013-10-08 08:06:00,
2013-10-08 02:11:00,34.2,24.0,29.93,SE,144,0.0,0.0,66,0.00,,,0.00,Wunderground v.1.15,2013-10-08 08:11:00,
2013-10-08 02:16:00,34.1,24.3,29.92,SE,144,0.0,2.0,67,0.00,,,0.00,Wunderground v.1.15,2013-10-08 08:16:00,
2013-10-08 02:21:00,34.1,24.3,29.92,SE,144,0.0,0.0,67,0.00,,,0.00,Wunderground v.1.15,2013-10-08 08:21:00,
2013-10-08 02:26:00,34.0,24.5,29.92,SE,144,0.0,0.0,68,0.00,,,0.00,Wunderground v.1.15,2013-10-08 08:26:00,
2013-10-08 02:31:00,33.9,24.4,29.91,SE,144,0.0,2.0,68,0.00,,,0.00,Wunderground v.1.15,2013-10-08 08:31:00,
2013-10-08 02:36:00,33.7,24.6,29.91,SE,144,2.0,2.0,69,0.00,,,0.00,Wunderground v.1.15,2013-10-08 08:36:00,
2013-10-08 02:41:00,33.6,24.9,29.91,SE,144,0.0,1.0,70,0.00,,,0.00,Wunderground v.1.15,2013-10-08 08:41:00,
2013-10-08 02:46:00,33.5,24.8,29.91,SE,144,0.0,2.0,70,0.00,,,0.00,Wunderground v.1.15,2013-10-08 08:46:00,
2013-10-08 02:51:00,33.4,24.7,29.90,SE,144,0.0,0.0,70,0.00,,,0.00,Wunderground v.1.15,2013-10-08 08:51:00,
2013-10-08 02:56:00,33.3,24.6,29.90,SE,144,0.0,2.0,70,0.00,,,0.00,Wunderground v.1.15,2013-10-08 08:56:00,
2013-10-08 03:01:00,33.2,24.5,29.89,SE,144,0.0,0.0,70,0.00,,,0.00,Wunderground v.1.15,2013-10-08 09:01:00,
2013-10-08 03:06:00,33.2,24.8,29.90,SE,128,0.0,2.0,71,0.00,,,0.00,Wunderground v.1.15,2013-10-08 09:06:00,
2013-10-08 03:11:00,33.2,25.1,29.89,SE,128,0.0,1.0,72,0.00,,,0.00,Wunderground v.1.15,2013-10-08 09:11:00,
2013-10-08 03:16:00,33.3,25.2,29.89,SE,128,2.0,2.0,72,0.00,,,0.00,Wunderground v.1.15,2013-10-08 09:16:00,
2013-10-08 03:21:00,33.3,25.2,29.89,SE,128,3.0,3.0,72,0.00,,,0.00,Wunderground v.1.15,2013-10-08 09:21:00,
2013-10-08 03:26:00,33.5,25.4,29.89,ESE,122,0.0,3.0,72,0.00,,,0.00,Wunderground v.1.15,2013-10-08 09:26:00,
2013-10-08 03:31:00,33.7,25.6,29.89,ESE,122,0.0,1.0,72,0.00,,,0.00,Wunderground v.1.15,2013-10-08 09:31:00,
2013-10-08 03:36:00,33.7,25.6,29.88,ESE,122,0.0,1.0,72,0.00,,,0.00,Wunderground v.1.15,2013-10-08 09:36:00,
2013-10-08 03:41:00,33.6,25.5,29.88,ESE,122,0.0,1.0,72,0.00,,,0.00,Wunderground v.1.15,2013-10-08 09:41:00,
2013-10-08 03:46:00,33.5,25.1,29.88,ESE,109,0.0,4.0,71,0.00,,,0.00,Wunderground v.1.15,2013-10-08 09:46:00,
2013-10-08 03:51:00,33.4,25.0,29.88,East,93,2.0,2.0,71,0.00,,,0.00,Wunderground v.1.15,2013-10-08 09:51:00,
2013-10-08 03:56:00,33.3,24.9,29.88,NW,318,1.0,3.0,71,0.00,,,0.00,Wunderground v.1.15,2013-10-08 09:56:00,
2013-10-08 04:01:00,33.3,24.9,29.88,NW,318,0.0,1.0,71,0.00,,,0.00,Wunderground v.1.15,2013-10-08 10:01:00,
2013-10-08 04:06:00,33.4,24.7,29.89,NW,318,0.0,1.0,70,0.00,,,0.00,Wunderground v.1.15,2013-10-08 10:06:00,
2013-10-08 04:11:00,33.5,25.1,29.88,NW,318,0.0,0.0,71,0.00,,,0.00,Wunderground v.1.15,2013-10-08 10:11:00,
2013-10-08 04:16:00,33.4,24.7,29.88,NW,318,0.0,0.0,70,0.00,,,0.00,Wunderground v.1.15,2013-10-08 10:16:00,
2013-10-08 04:21:00,33.3,24.9,29.88,NW,318,1.0,1.0,71,0.00,,,0.00,Wunderground v.1.15,2013-10-08 10:21:00,
2013-10-08 04:26:00,33.0,24.6,29.88,NW,318,0.0,1.0,71,0.00,,,0.00,Wunderground v.1.15,2013-10-08 10:26:00,
2013-10-08 04:31:00,32.8,24.4,29.88,NW,318,0.0,0.0,71,0.00,,,0.00,Wunderground v.1.15,2013-10-08 10:31:00,
2013-10-08 04:36:00,32.5,24.5,29.88,NW,318,0.0,0.0,72,0.00,,,0.00,Wunderground v.1.15,2013-10-08 10:36:00,
2013-10-08 04:41:00,32.3,24.6,29.88,NW,318,0.0,1.0,73,0.00,,,0.00,Wunderground v.1.15,2013-10-08 10:41:00,
2013-10-08 04:46:00,32.0,24.6,29.88,NW,317,0.0,1.0,74,0.00,,,0.00,Wunderground v.1.15,2013-10-08 10:46:00,
2013-10-08 04:51:00,31.8,24.8,29.87,NW,317,0.0,0.0,75,0.00,,,0.00,Wunderground v.1.15,2013-10-08 10:51:00,
2013-10-08 04:56:00,31.7,24.7,29.87,NW,317,0.0,1.0,75,0.00,,,0.00,Wunderground v.1.15,2013-10-08 10:56:00,
2013-10-08 05:01:00,31.5,24.8,29.87,NW,317,0.0,0.0,76,0.00,,,0.00,Wunderground v.1.15,2013-10-08 11:01:00,
2013-10-08 05:06:00,31.4,24.7,29.87,NW,317,0.0,1.0,76,0.00,,,0.00,Wunderground v.1.15,2013-10-08 11:06:00,
2013-10-08 05:11:00,31.3,24.6,29.87,WNW,302,0.0,1.0,76,0.00,,,0.00,Wunderground v.1.15,2013-10-08 11:11:00,
2013-10-08 05:16:00,31.4,25.0,29.87,WNW,302,0.0,1.0,77,0.00,,,0.00,Wunderground v.1.15,2013-10-08 11:16:00,
2013-10-08 05:21:00,31.4,24.7,29.87,NW,304,0.0,0.0,76,0.00,,,0.00,Wunderground v.1.15,2013-10-08 11:21:00,
2013-10-08 05:26:00,31.3,24.6,29.87,WNW,291,0.0,1.0,76,0.00,,,0.00,Wunderground v.1.15,2013-10-08 11:26:00,
2013-10-08 05:31:00,31.3,24.6,29.87,WNW,290,0.0,0.0,76,0.00,,,0.00,Wunderground v.1.15,2013-10-08 11:31:00,
2013-10-08 05:36:00,31.3,24.6,29.86,WNW,290,0.0,1.0,76,0.00,,,0.00,Wunderground v.1.15,2013-10-08 11:36:00,
2013-10-08 05:41:00,31.2,24.8,29.86,WNW,290,0.0,1.0,77,0.00,,,0.00,Wunderground v.1.15,2013-10-08 11:41:00,
2013-10-08 05:46:00,31.2,24.8,29.86,WNW,290,0.0,1.0,77,0.00,,,0.00,Wunderground v.1.15,2013-10-08 11:46:00,
2013-10-08 05:51:00,31.1,24.7,29.86,WNW,290,0.0,0.0,77,0.00,,,0.00,Wunderground v.1.15,2013-10-08 11:51:00,
2013-10-08 05:56:00,31.0,24.6,29.86,WNW,289,0.0,1.0,77,0.00,,,0.00,Wunderground v.1.15,2013-10-08 11:56:00,
2013-10-08 06:01:00,30.9,24.5,29.86,WNW,294,0.0,2.0,77,0.00,,,0.00,Wunderground v.1.15,2013-10-08 12:01:00,
2013-10-08 06:06:00,30.8,24.4,29.86,WNW,294,0.0,2.0,77,0.00,,,0.00,Wunderground v.1.15,2013-10-08 12:06:00,
2013-10-08 06:11:00,30.7,24.7,29.85,WNW,291,0.0,1.0,78,0.00,,,0.00,Wunderground v.1.15,2013-10-08 12:11:00,
2013-10-08 06:16:00,30.6,24.2,29.85,WNW,291,0.0,1.0,77,0.00,,,0.00,Wunderground v.1.15,2013-10-08 12:16:00,
2013-10-08 06:21:00,30.4,24.4,29.85,West,277,1.0,2.0,78,0.00,,,0.00,Wunderground v.1.15,2013-10-08 12:21:00,
2013-10-08 06:26:00,30.3,24.3,29.85,West,277,0.0,2.0,78,0.00,,,0.00,Wunderground v.1.15,2013-10-08 12:26:00,
2013-10-08 06:31:00,30.2,24.2,29.85,West,272,0.0,1.0,78,0.00,,,0.00,Wunderground v.1.15,2013-10-08 12:31:00,
2013-10-08 06:36:00,30.2,24.2,29.84,West,273,0.0,2.0,78,0.00,,,0.00,Wunderground v.1.15,2013-10-08 12:36:00,
2013-10-08 06:41:00,30.0,24.0,29.84,West,265,0.0,1.0,78,0.00,,,0.00,Wunderground v.1.15,2013-10-08 12:41:00,
2013-10-08 06:46:00,29.9,23.9,29.84,WSW,249,0.0,2.0,78,0.00,,,0.00,Wunderground v.1.15,2013-10-08 12:46:00,
2013-10-08 06:51:00,29.7,23.7,29.84,WNW,290,1.0,3.0,78,0.00,,,0.00,Wunderground v.1.15,2013-10-08 12:51:00,
2013-10-08 06:56:00,29.8,23.8,29.84,WNW,286,0.0,3.0,78,0.00,,,0.00,Wunderground v.1.15,2013-10-08 12:56:00,
2013-10-08 07:01:00,29.8,23.8,29.84,West,277,1.0,1.0,78,0.00,,,0.00,Wunderground v.1.15,2013-10-08 13:01:00,
2013-10-08 07:06:00,29.8,23.8,29.84,West,277,0.0,1.0,78,0.00,,,0.00,Wunderground v.1.15,2013-10-08 13:06:00,
2013-10-08 07:11:00,29.8,23.8,29.84,West,277,1.0,1.0,78,0.00,,,0.00,Wunderground v.1.15,2013-10-08 13:11:00,
2013-10-08 07:16:00,29.9,23.9,29.84,West,277,0.0,2.0,78,0.00,,,0.00,Wunderground v.1.15,2013-10-08 13:16:00,
2013-10-08 07:21:00,29.8,23.8,29.84,West,261,0.0,1.0,78,0.00,,,0.00,Wunderground v.1.15,2013-10-08 13:21:00,
2013-10-08 07:26:00,29.8,23.8,29.83,WNW,290,1.0,2.0,78,0.00,,,0.00,Wunderground v.1.15,2013-10-08 13:26:00,
2013-10-08 07:31:00,29.9,23.9,29.83,WNW,292,3.0,3.0,78,0.00,,,0.00,Wunderground v.1.15,2013-10-08 13:31:00,
2013-10-08 07:36:00,30.1,24.1,29.84,WNW,292,0.0,3.0,78,0.00,,,0.00,Wunderground v.1.15,2013-10-08 13:36:00,
2013-10-08 07:41:00,30.4,24.1,29.84,WNW,292,0.0,1.0,77,0.00,,,0.00,Wunderground v.1.15,2013-10-08 13:41:00,
2013-10-08 07:46:00,30.5,23.5,29.84,West,279,0.0,1.0,75,0.00,,,0.00,Wunderground v.1.15,2013-10-08 13:46:00,
2013-10-08 07:51:00,30.6,23.6,29.84,SSW,209,0.0,1.0,75,0.00,,,0.00,Wunderground v.1.15,2013-10-08 13:51:00,
2013-10-08 07:56:00,30.7,24.0,29.83,WSW,254,0.0,3.0,76,0.00,,,0.00,Wunderground v.1.15,2013-10-08 13:56:00,
2013-10-08 08:01:00,30.9,24.5,29.83,WSW,254,0.0,2.0,77,0.00,,,0.00,Wunderground v.1.15,2013-10-08 14:01:00,
2013-10-08 08:06:00,31.1,24.7,29.83,West,263,0.0,3.0,77,0.00,,,0.00,Wunderground v.1.15,2013-10-08 14:06:00,
2013-10-08 08:11:00,31.6,25.2,29.83,West,261,0.0,2.0,77,0.00,,,0.00,Wunderground v.1.15,2013-10-08 14:11:00,
2013-10-08 08:16:00,32.4,25.4,29.83,SE,130,0.0,3.0,75,0.00,,,0.00,Wunderground v.1.15,2013-10-08 14:16:00,
2013-10-08 08:21:00,33.6,25.9,29.83,East,101,1.0,1.0,73,0.00,,,0.00,Wunderground v.1.15,2013-10-08 14:21:00,
2013-10-08 08:26:00,34.8,26.7,29.83,NNE,29,1.0,3.0,72,0.00,,,0.00,Wunderground v.1.15,2013-10-08 14:26:00,
2013-10-08 08:31:00,35.8,27.3,29.83,NW,325,4.0,4.0,71,0.00,,,0.00,Wunderground v.1.15,2013-10-08 14:31:00,
2013-10-08 08:36:00,36.9,27.7,29.83,NNW,329,0.0,5.0,69,0.00,,,0.00,Wunderground v.1.15,2013-10-08 14:36:00,
2013-10-08 08:41:00,37.9,27.2,29.83,South,190,1.0,4.0,65,0.00,,,0.00,Wunderground v.1.15,2013-10-08 14:41:00,
2013-10-08 08:46:00,38.6,26.3,29.83,South,188,0.0,4.0,61,0.00,,,0.00,Wunderground v.1.15,2013-10-08 14:46:00,
2013-10-08 08:51:00,39.3,24.9,29.82,WSW,252,0.0,0.0,56,0.00,,,0.00,Wunderground v.1.15,2013-10-08 14:51:00,
2013-10-08 08:56:00,40.0,25.6,29.82,WSW,254,0.0,1.0,56,0.00,,,0.00,Wunderground v.1.15,2013-10-08 14:56:00,
2013-10-08 09:01:00,40.7,24.9,29.82,WSW,254,0.0,0.0,53,0.00,,,0.00,Wunderground v.1.15,2013-10-08 15:01:00,
2013-10-08 09:06:00,41.2,24.9,29.82,WSW,254,1.0,1.0,52,0.00,,,0.00,Wunderground v.1.15,2013-10-08 15:06:00,
2013-10-08 09:11:00,41.9,27.3,29.82,SW,227,0.0,2.0,56,0.00,,,0.00,Wunderground v.1.15,2013-10-08 15:11:00,
2013-10-08 09:16:00,42.7,28.1,29.81,SW,227,0.0,2.0,56,0.00,,,0.00,Wunderground v.1.15,2013-10-08 15:16:00,
2013-10-08 09:21:00,43.4,26.0,29.81,SW,227,0.0,2.0,50,0.00,,,0.00,Wunderground v.1.15,2013-10-08 15:21:00,
2013-10-08 09:26:00,44.2,26.2,29.81,SW,227,0.0,2.0,49,0.00,,,0.00,Wunderground v.1.15,2013-10-08 15:26:00,
2013-10-08 09:31:00,45.4,26.3,29.81,SW,227,0.0,1.0,47,0.00,,,0.00,Wunderground v.1.15,2013-10-08 15:31:00,
2013-10-08 09:36:00,46.7,27.0,29.80,SW,227,0.0,1.0,46,0.00,,,0.00,Wunderground v.1.15,2013-10-08 15:36:00,
2013-10-08 09:41:00,48.0,28.2,29.80,NW,320,0.0,2.0,46,0.00,,,0.00,Wunderground v.1.15,2013-10-08 15:41:00,
2013-10-08 09:46:00,48.9,28.5,29.79,NW,326,2.0,3.0,45,0.00,,,0.00,Wunderground v.1.15,2013-10-08 15:46:00,
2013-10-08 09:51:00,49.7,28.1,29.79,NW,325,0.0,1.0,43,0.00,,,0.00,Wunderground v.1.15,2013-10-08 15:51:00,
2013-10-08 09:56:00,50.3,28.1,29.79,NW,325,0.0,3.0,42,0.00,,,0.00,Wunderground v.1.15,2013-10-08 15:56:00,
2013-10-08 10:01:00,50.4,27.0,29.78,NW,325,0.0,3.0,40,0.00,,,0.00,Wunderground v.1.15,2013-10-08 16:01:00,
2013-10-08 10:06:00,50.9,24.9,29.77,NW,312,4.0,4.0,36,0.00,,,0.00,Wunderground v.1.15,2013-10-08 16:06:00,
2013-10-08 10:11:00,51.3,25.2,29.77,NW,316,1.0,1.0,36,0.00,,,0.00,Wunderground v.1.15,2013-10-08 16:11:00,
2013-10-08 10:16:00,51.5,26.7,29.77,NW,313,0.0,4.0,38,0.00,,,0.00,Wunderground v.1.15,2013-10-08 16:16:00,
2013-10-08 10:21:00,51.7,26.9,29.76,NNW,346,0.0,6.0,38,0.00,,,0.00,Wunderground v.1.15,2013-10-08 16:21:00,
2013-10-08 10:26:00,52.2,28.0,29.75,NNW,332,1.0,6.0,39,0.00,,,0.00,Wunderground v.1.15,2013-10-08 16:26:00,
2013-10-08 10:31:00,53.0,27.4,29.75,NW,306,0.0,1.0,37,0.00,,,0.00,Wunderground v.1.15,2013-10-08 16:31:00,
2013-10-08 10:36:00,53.8,27.4,29.75,NW,309,2.0,6.0,36,0.00,,,0.00,Wunderground v.1.15,2013-10-08 16:36:00,
2013-10-08 10:41:00,55.0,27.8,29.74,NNW,330,1.0,5.0,35,0.00,,,0.00,Wunderground v.1.15,2013-10-08 16:41:00,
2013-10-08 10:46:00,56.5,25.4,29.74,NNE,21,4.0,7.0,30,0.00,,,0.00,Wunderground v.1.15,2013-10-08 16:46:00,
2013-10-08 10:51:00,57.9,23.2,29.74,North,360,0.0,2.0,26,0.00,,,0.00,Wunderground v.1.15,2013-10-08 16:51:00,
2013-10-08 10:56:00,59.3,22.5,29.73,North,360,2.0,6.0,24,0.00,,,0.00,Wunderground v.1.15,2013-10-08 16:56:00,
2013-10-08 11:01:00,60.4,20.2,29.73,NNE,26,1.0,3.0,21,0.00,,,0.00,Wunderground v.1.15,2013-10-08 17:01:00,
2013-10-08 11:06:00,61.4,16.1,29.72,SE,145,6.0,6.0,17,0.00,,,0.00,Wunderground v.1.15,2013-10-08 17:06:00,
2013-10-08 11:11:00,62.4,14.1,29.72,SSE,153,3.0,10.0,15,0.00,,,0.00,Wunderground v.1.15,2013-10-08 17:11:00,
2013-10-08 11:16:00,62.5,10.9,29.72,SE,128,3.0,10.0,13,0.00,,,0.00,Wunderground v.1.15,2013-10-08 17:16:00,
2013-10-08 11:21:00,62.9,9.4,29.72,SSE,160,2.0,5.0,12,0.00,,,0.00,Wunderground v.1.15,2013-10-08 17:21:00,
2013-10-08 11:26:00,63.3,13.2,29.72,SE,132,5.0,10.0,14,0.00,,,0.00,Wunderground v.1.15,2013-10-08 17:26:00,
2013-10-08 11:31:00,63.8,10.1,29.72,South,175,4.0,14.0,12,0.00,,,0.00,Wunderground v.1.15,2013-10-08 17:31:00,
2013-10-08 11:36:00,64.0,8.4,29.72,SW,214,3.0,14.0,11,0.00,,,0.00,Wunderground v.1.15,2013-10-08 17:36:00,
2013-10-08 11:41:00,63.6,8.0,29.71,SSE,156,2.0,16.0,11,0.00,,,0.00,Wunderground v.1.15,2013-10-08 17:41:00,
2013-10-08 11:46:00,63.4,11.6,29.71,SSE,148,2.0,16.0,13,0.00,,,0.00,Wunderground v.1.15,2013-10-08 17:46:00,
2013-10-08 11:51:00,63.7,11.9,29.71,SE,138,6.0,6.0,13,0.00,,,0.00,Wunderground v.1.15,2013-10-08 17:51:00,
2013-10-08 11:56:00,64.0,12.1,29.71,SE,144,9.0,11.0,13,0.00,,,0.00,Wunderground v.1.15,2013-10-08 17:56:00,
2013-10-08 12:01:00,64.3,10.5,29.70,South,174,1.0,11.0,12,0.00,,,0.00,Wunderground v.1.15,2013-10-08 18:01:00,
2013-10-08 12:06:00,63.9,10.2,29.71,SSW,198,7.0,13.0,12,0.00,,,0.00,Wunderground v.1.15,2013-10-08 18:06:00,
2013-10-08 12:11:00,63.8,11.9,29.71,WSW,239,4.0,11.0,13,0.00,,,0.00,Wunderground v.1.15,2013-10-08 18:11:00,
2013-10-08 12:16:00,63.8,11.9,29.71,ESE,121,4.0,11.0,13,0.00,,,0.00,Wunderground v.1.15,2013-10-08 18:16:00,
2013-10-08 12:21:00,64.4,12.4,29.70,East,99,7.0,9.0,13,0.00,,,0.00,Wunderground v.1.15,2013-10-08 18:21:00,
2013-10-08 12:26:00,64.4,14.1,29.70,SSE,162,5.0,12.0,14,0.00,,,0.00,Wunderground v.1.15,2013-10-08 18:26:00,
2013-10-08 12:31:00,64.8,12.7,29.70,SSE,147,4.0,8.0,13,0.00,,,0.00,Wunderground v.1.15,2013-10-08 18:31:00,
2013-10-08 12:36:00,65.1,13.0,29.70,ESE,123,2.0,8.0,13,0.00,,,0.00,Wunderground v.1.15,2013-10-08 18:36:00,
2013-10-08 12:41:00,65.2,13.0,29.69,WSW,246,3.0,14.0,13,0.00,,,0.00,Wunderground v.1.15,2013-10-08 18:41:00,
2013-10-08 12:46:00,65.2,13.0,29.69,SE,142,2.0,14.0,13,0.00,,,0.00,Wunderground v.1.15,2013-10-08 18:46:00,
2013-10-08 12:51:00,65.3,13.1,29.69,SSE,151,7.0,8.0,13,0.00,,,0.00,Wunderground v.1.15,2013-10-08 18:51:00,
2013-10-08 12:56:00,65.5,13.3,29.69,SSE,156,3.0,12.0,13,0.00,,,0.00,Wunderground v.1.15,2013-10-08 18:56:00,
2013-10-08 13:01:00,65.6,13.4,29.68,SSW,197,2.0,7.0,13,0.00,,,0.00,Wunderground v.1.15,2013-10-08 19:01:00,
2013-10-08 13:06:00,65.2,13.0,29.68,SE,131,9.0,9.0,13,0.00,,,0.00,Wunderground v.1.15,2013-10-08 19:06:00,
2013-10-08 13:11:00,65.2,13.0,29.67,SW,216,1.0,3.0,13,0.00,,,0.00,Wunderground v.1.15,2013-10-08 19:11:00,
2013-10-08 13:16:00,65.2,14.7,29.67,ESE,123,0.0,7.0,14,0.00,,,0.00,Wunderground v.1.15,2013-10-08 19:16:00,
2013-10-08 13:21:00,65.0,12.9,29.67,SSW,203,1.0,3.0,13,0.00,,,0.00,Wunderground v.1.15,2013-10-08 19:21:00,
2013-10-08 13:26:00,64.3,15.6,29.66,ESE,123,14.0,14.0,15,0.00,,,0.00,Wunderground v.1.15,2013-10-08 19:26:00,
2013-10-08 13:31:00,64.6,15.8,29.66,SSE,148,6.0,8.0,15,0.00,,,0.00,Wunderground v.1.15,2013-10-08 19:31:00,
2013-10-08 13:36:00,64.7,14.3,29.66,ESE,113,1.0,10.0,14,0.00,,,0.00,Wunderground v.1.15,2013-10-08 19:36:00,
2013-10-08 13:41:00,64.4,15.7,29.65,ESE,117,5.0,7.0,15,0.00,,,0.00,Wunderground v.1.15,2013-10-08 19:41:00,
2013-10-08 13:46:00,64.7,18.8,29.65,SE,132,3.0,7.0,17,0.00,,,0.00,Wunderground v.1.15,2013-10-08 19:46:00,
2013-10-08 13:51:00,64.8,16.0,29.64,SW,236,5.0,8.0,15,0.00,,,0.00,Wunderground v.1.15,2013-10-08 19:51:00,
2013-10-08 13:56:00,64.2,15.5,29.64,South,175,1.0,8.0,15,0.00,,,0.00,Wunderground v.1.15,2013-10-08 19:56:00,
2013-10-08 14:01:00,64.5,17.3,29.64,WSW,240,2.0,5.0,16,0.00,,,0.00,Wunderground v.1.15,2013-10-08 20:01:00,
2013-10-08 14:06:00,64.3,17.1,29.64,SE,127,0.0,8.0,16,0.00,,,0.00,Wunderground v.1.15,2013-10-08 20:06:00,
2013-10-08 14:11:00,64.1,16.9,29.63,SSE,167,3.0,3.0,16,0.00,,,0.00,Wunderground v.1.15,2013-10-08 20:11:00,
2013-10-08 14:16:00,64.3,17.1,29.63,SE,142,4.0,8.0,16,0.00,,,0.00,Wunderground v.1.15,2013-10-08 20:16:00,
2013-10-08 14:21:00,64.6,17.3,29.63,SE,128,2.0,9.0,16,0.00,,,0.00,Wunderground v.1.15,2013-10-08 20:21:00,
2013-10-08 14:26:00,64.4,18.6,29.63,SSE,152,1.0,9.0,17,0.00,,,0.00,Wunderground v.1.15,2013-10-08 20:26:00,
2013-10-08 14:31:00,64.1,18.3,29.62,SSE,147,0.0,3.0,17,0.00,,,0.00,Wunderground v.1.15,2013-10-08 20:31:00,
2013-10-08 14:36:00,63.9,16.8,29.62,West,263,1.0,5.0,16,0.00,,,0.00,Wunderground v.1.15,2013-10-08 20:36:00,
2013-10-08 14:41:00,63.8,18.1,29.62,SSE,163,1.0,9.0,17,0.00,,,0.00,Wunderground v.1.15,2013-10-08 20:41:00,
2013-10-08 14:46:00,63.8,18.1,29.62,SSE,152,0.0,9.0,17,0.00,,,0.00,Wunderground v.1.15,2013-10-08 20:46:00,
2013-10-08 14:51:00,63.7,16.6,29.62,SSW,192,5.0,6.0,16,0.00,,,0.00,Wunderground v.1.15,2013-10-08 20:51:00,
2013-10-08 14:56:00,63.6,16.5,29.62,SSE,150,0.0,7.0,16,0.00,,,0.00,Wunderground v.1.15,2013-10-08 20:56:00,
2013-10-08 15:01:00,63.6,17.9,29.62,SSW,201,5.0,10.0,17,0.00,,,0.00,Wunderground v.1.15,2013-10-08 21:01:00,
2013-10-08 15:06:00,63.6,17.9,29.61,SE,130,3.0,10.0,17,0.00,,,0.00,Wunderground v.1.15,2013-10-08 21:06:00,
2013-10-08 15:11:00,63.6,17.9,29.62,SSE,154,4.0,7.0,17,0.00,,,0.00,Wunderground v.1.15,2013-10-08 21:11:00,
2013-10-08 15:16:00,63.6,19.3,29.61,SSW,204,5.0,10.0,18,0.00,,,0.00,Wunderground v.1.15,2013-10-08 21:16:00,
2013-10-08 15:21:00,63.6,17.9,29.61,SE,137,6.0,8.0,17,0.00,,,0.00,Wunderground v.1.15,2013-10-08 21:21:00,
2013-10-08 15:26:00,63.6,19.3,29.61,ESE,119,4.0,11.0,18,0.00,,,0.00,Wunderground v.1.15,2013-10-08 21:26:00,
2013-10-08 15:31:00,63.5,17.8,29.61,West,271,3.0,10.0,17,0.00,,,0.00,Wunderground v.1.15,2013-10-08 21:31:00,
2013-10-08 15:36:00,63.3,19.0,29.61,WSW,238,0.0,10.0,18,0.00,,,0.00,Wunderground v.1.15,2013-10-08 21:36:00,
2013-10-08 15:41:00,63.1,18.9,29.61,WSW,251,3.0,4.0,18,0.00,,,0.00,Wunderground v.1.15,2013-10-08 21:41:00,
2013-10-08 15:46:00,63.0,18.8,29.61,South,180,3.0,9.0,18,0.00,,,0.00,Wunderground v.1.15,2013-10-08 21:46:00,
2013-10-08 15:51:00,63.1,18.9,29.61,SE,140,1.0,11.0,18,0.00,,,0.00,Wunderground v.1.15,2013-10-08 21:51:00,
2013-10-08 15:56:00,62.7,19.8,29.61,SE,135,2.0,11.0,19,0.00,,,0.00,Wunderground v.1.15,2013-10-08 21:56:00,
2013-10-08 16:01:00,62.5,20.8,29.61,SE,142,5.0,6.0,20,0.00,,,0.00,Wunderground v.1.15,2013-10-08 22:01:00,
2013-10-08 16:06:00,62.2,20.6,29.61,SSE,147,2.0,8.0,20,0.00,,,0.00,Wunderground v.1.15,2013-10-08 22:06:00,
2013-10-08 16:11:00,62.1,20.5,29.61,SE,131,2.0,6.0,20,0.00,,,0.00,Wunderground v.1.15,2013-10-08 22:11:00,
2013-10-08 16:16:00,62.2,20.6,29.61,SW,221,3.0,9.0,20,0.00,,,0.00,Wunderground v.1.15,2013-10-08 22:16:00,
2013-10-08 16:21:00,62.1,21.7,29.62,SE,142,0.0,7.0,21,0.00,,,0.00,Wunderground v.1.15,2013-10-08 22:21:00,
2013-10-08 16:26:00,61.9,21.5,29.62,SSE,167,0.0,7.0,21,0.00,,,0.00,Wunderground v.1.15,2013-10-08 22:26:00,
2013-10-08 16:31:00,61.4,19.9,29.62,SW,232,1.0,5.0,20,0.00,,,0.00,Wunderground v.1.15,2013-10-08 22:31:00,
2013-10-08 16:36:00,61.1,21.9,29.62,SE,141,3.0,8.0,22,0.00,,,0.00,Wunderground v.1.15,2013-10-08 22:36:00,
2013-10-08 16:41:00,60.9,21.8,29.62,WSW,257,5.0,7.0,22,0.00,,,0.00,Wunderground v.1.15,2013-10-08 22:41:00,
2013-10-08 16:46:00,60.3,21.2,29.62,South,187,1.0,8.0,22,0.00,,,0.00,Wunderground v.1.15,2013-10-08 22:46:00,
2013-10-08 16:51:00,60.1,21.1,29.63,SSW,209,2.0,8.0,22,0.00,,,0.00,Wunderground v.1.15,2013-10-08 22:51:00,
2013-10-08 16:56:00,59.9,22.0,29.62,SW,233,1.0,8.0,23,0.00,,,0.00,Wunderground v.1.15,2013-10-08 22:56:00,
2013-10-08 17:01:00,59.7,22.8,29.63,SSW,198,0.0,3.0,24,0.00,,,0.00,Wunderground v.1.15,2013-10-08 23:01:00,
2013-10-08 17:06:00,59.6,21.7,29.63,SW,232,4.0,4.0,23,0.00,,,0.00,Wunderground v.1.15,2013-10-08 23:06:00,
2013-10-08 17:11:00,59.3,22.5,29.63,SW,236,0.0,6.0,24,0.00,,,0.00,Wunderground v.1.15,2013-10-08 23:11:00,
2013-10-08 17:16:00,58.8,23.0,29.63,SW,236,4.0,8.0,25,0.00,,,0.00,Wunderground v.1.15,2013-10-08 23:16:00,
2013-10-08 17:21:00,58.4,22.7,29.63,SW,219,0.0,5.0,25,0.00,,,0.00,Wunderground v.1.15,2013-10-08 23:21:00,
2013-10-08 17:26:00,57.8,23.1,29.63,SSW,205,4.0,6.0,26,0.00,,,0.00,Wunderground v.1.15,2013-10-08 23:26:00,
2013-10-08 17:31:00,57.3,23.6,29.63,WSW,240,2.0,2.0,27,0.00,,,0.00,Wunderground v.1.15,2013-10-08 23:31:00,
2013-10-08 17:36:00,56.7,23.9,29.64,SW,231,0.0,5.0,28,0.00,,,0.00,Wunderground v.1.15,2013-10-08 23:36:00,
2013-10-08 17:41:00,56.3,23.6,29.64,SSE,159,0.0,5.0,28,0.00,,,0.00,Wunderground v.1.15,2013-10-08 23:41:00,
2013-10-08 17:46:00,55.9,24.1,29.64,South,171,1.0,7.0,29,0.00,,,0.00,Wunderground v.1.15,2013-10-08 23:46:00,
2013-10-08 17:51:00,55.6,24.6,29.64,South,180,3.0,4.0,30,0.00,,,0.00,Wunderground v.1.15,2013-10-08 23:51:00,
2013-10-08 17:56:00,55.2,24.3,29.64,SSE,163,2.0,6.0,30,0.00,,,0.00,Wunderground v.1.15,2013-10-08 23:56:00,
2013-10-08 18:01:00,54.9,24.0,29.64,SSE,161,1.0,7.0,30,0.00,,,0.00,Wunderground v.1.15,2013-10-09 00:01:00,
2013-10-08 18:06:00,54.8,24.7,29.64,South,180,1.0,7.0,31,0.00,,,0.00,Wunderground v.1.15,2013-10-09 00:06:00,
2013-10-08 18:12:00,54.5,25.2,29.64,SSE,148,2.0,8.0,32,0.00,,,0.00,Wunderground v.1.15,2013-10-09 00:12:00,
2013-10-08 18:17:00,54.3,25.0,29.64,South,172,1.0,8.0,32,0.00,,,0.00,Wunderground v.1.15,2013-10-09 00:17:00,
2013-10-08 18:22:00,54.0,25.5,29.65,SE,142,2.0,4.0,33,0.00,,,0.00,Wunderground v.1.15,2013-10-09 00:22:00,
2013-10-08 18:27:00,53.6,25.2,29.65,SSE,154,4.0,10.0,33,0.00,,,0.00,Wunderground v.1.15,2013-10-09 00:27:00,
2013-10-08 18:32:00,53.4,25.0,29.64,SE,128,3.0,12.0,33,0.00,,,0.00,Wunderground v.1.15,2013-10-09 00:32:00,
2013-10-08 18:37:00,53.1,25.4,29.65,SE,132,0.0,12.0,34,0.00,,,0.00,Wunderground v.1.15,2013-10-09 00:37:00,
2013-10-08 18:42:00,52.7,25.1,29.65,WNW,282,0.0,4.0,34,0.00,,,0.00,Wunderground v.1.15,2013-10-09 00:42:00,
2013-10-08 18:47:00,52.2,24.6,29.65,WNW,286,0.0,4.0,34,0.00,,,0.00,Wunderground v.1.15,2013-10-09 00:47:00,
2013-10-08 18:52:00,51.8,25.0,29.65,WSW,258,0.0,5.0,35,0.00,,,0.00,Wunderground v.1.15,2013-10-09 00:52:00,
2013-10-08 18:57:00,51.6,24.8,29.65,WSW,258,0.0,5.0,35,0.00,,,0.00,Wunderground v.1.15,2013-10-09 00:57:00,
2013-10-08 19:02:00,51.3,24.5,29.65,WSW,258,0.0,1.0,35,0.00,,,0.00,Wunderground v.1.15,2013-10-09 01:02:00,
2013-10-08 19:07:00,51.0,25.0,29.65,WSW,258,0.0,2.0,36,0.00,,,0.00,Wunderground v.1.15,2013-10-09 01:07:00,
2013-10-08 19:12:00,50.6,25.3,29.66,WSW,258,0.0,2.0,37,0.00,,,0.00,Wunderground v.1.15,2013-10-09 01:12:00,
2013-10-08 19:17:00,50.3,25.0,29.66,South,169,1.0,3.0,37,0.00,,,0.00,Wunderground v.1.15,2013-10-09 01:17:00,
2013-10-08 19:22:00,49.9,25.3,29.66,South,169,0.0,1.0,38,0.00,,,0.00,Wunderground v.1.15,2013-10-09 01:22:00,
2013-10-08 19:27:00,49.5,24.9,29.67,South,169,0.0,1.0,38,0.00,,,0.00,Wunderground v.1.15,2013-10-09 01:27:00,
2013-10-08 19:32:00,49.0,25.1,29.67,South,169,0.0,1.0,39,0.00,,,0.00,Wunderground v.1.15,2013-10-09 01:32:00,
2013-10-08 19:37:00,48.6,25.3,29.67,South,169,0.0,1.0,40,0.00,,,0.00,Wunderground v.1.15,2013-10-09 01:37:00,
2013-10-08 19:42:00,48.2,25.0,29.68,South,169,0.0,2.0,40,0.00,,,0.00,Wunderground v.1.15,2013-10-09 01:42:00,
2013-10-08 19:47:00,47.6,25.0,29.68,South,175,0.0,3.0,41,0.00,,,0.00,Wunderground v.1.15,2013-10-09 01:47:00,
2013-10-08 19:52:00,47.3,25.3,29.68,South,175,0.0,1.0,42,0.00,,,0.00,Wunderground v.1.15,2013-10-09 01:52:00,
2013-10-08 19:57:00,47.1,25.2,29.68,South,175,0.0,2.0,42,0.00,,,0.00,Wunderground v.1.15,2013-10-09 01:57:00,
2013-10-08 20:02:00,46.9,25.5,29.68,South,178,0.0,1.0,43,0.00,,,0.00,Wunderground v.1.15,2013-10-09 02:02:00,
2013-10-08 20:07:00,46.5,25.7,29.68,South,178,0.0,2.0,44,0.00,,,0.00,Wunderground v.1.15,2013-10-09 02:07:00,
2013-10-08 20:12:00,46.2,25.5,29.68,South,178,0.0,0.0,44,0.00,,,0.00,Wunderground v.1.15,2013-10-09 02:12:00,
2013-10-08 20:17:00,45.9,25.7,29.69,South,178,0.0,1.0,45,0.00,,,0.00,Wunderground v.1.15,2013-10-09 02:17:00,
2013-10-08 20:22:00,45.5,25.9,29.68,ESE,110,2.0,6.0,46,0.00,,,0.00,Wunderground v.1.15,2013-10-09 02:22:00,
2013-10-08 20:27:00,45.4,25.8,29.69,East,96,1.0,6.0,46,0.00,,,0.00,Wunderground v.1.15,2013-10-09 02:27:00,
2013-10-08 20:32:00,45.2,26.1,29.69,East,96,0.0,1.0,47,0.00,,,0.00,Wunderground v.1.15,2013-10-09 02:32:00,
2013-10-08 20:37:00,44.8,26.3,29.70,East,96,0.0,1.0,48,0.00,,,0.00,Wunderground v.1.15,2013-10-09 02:37:00,
2013-10-08 20:42:00,44.3,25.8,29.70,East,96,0.0,0.0,48,0.00,,,0.00,Wunderground v.1.15,2013-10-09 02:42:00,
2013-10-08 20:47:00,43.8,25.4,29.70,East,96,0.0,2.0,48,0.00,,,0.00,Wunderground v.1.15,2013-10-09 02:47:00,
2013-10-08 20:52:00,43.6,25.7,29.70,East,96,1.0,2.0,49,0.00,,,0.00,Wunderground v.1.15,2013-10-09 02:52:00,
2013-10-08 20:57:00,43.6,25.7,29.70,ESE,114,3.0,4.0,49,0.00,,,0.00,Wunderground v.1.15,2013-10-09 02:57:00,
2013-10-08 21:02:00,43.7,25.8,29.70,ESE,111,1.0,2.0,49,0.00,,,0.00,Wunderground v.1.15,2013-10-09 03:02:00,
2013-10-08 21:07:00,43.7,25.8,29.70,ESE,111,2.0,2.0,49,0.00,,,0.00,Wunderground v.1.15,2013-10-09 03:07:00,
2013-10-08 21:12:00,43.6,25.7,29.70,ESE,119,2.0,7.0,49,0.00,,,0.00,Wunderground v.1.15,2013-10-09 03:12:00,
2013-10-08 21:17:00,43.4,26.0,29.70,East,101,2.0,7.0,50,0.00,,,0.00,Wunderground v.1.15,2013-10-09 03:17:00,
2013-10-08 21:22:00,43.3,25.9,29.70,SE,132,1.0,5.0,50,0.00,,,0.00,Wunderground v.1.15,2013-10-09 03:22:00,
2013-10-08 21:27:00,43.2,26.3,29.70,SE,134,1.0,5.0,51,0.00,,,0.00,Wunderground v.1.15,2013-10-09 03:27:00,
2013-10-08 21:32:00,43.0,26.1,29.71,East,94,1.0,2.0,51,0.00,,,0.00,Wunderground v.1.15,2013-10-09 03:32:00,
2013-10-08 21:37:00,42.8,25.9,29.71,SSW,207,0.0,3.0,51,0.00,,,0.00,Wunderground v.1.15,2013-10-09 03:37:00,
2013-10-08 21:42:00,42.7,25.8,29.71,SSE,167,1.0,1.0,51,0.00,,,0.00,Wunderground v.1.15,2013-10-09 03:42:00,
2013-10-08 21:47:00,42.5,25.6,29.71,SSE,162,0.0,2.0,51,0.00,,,0.00,Wunderground v.1.15,2013-10-09 03:47:00,
2013-10-08 21:52:00,42.3,25.9,29.71,ESE,123,3.0,6.0,52,0.00,,,0.00,Wunderground v.1.15,2013-10-09 03:52:00,
2013-10-08 21:57:00,42.1,26.2,29.71,ESE,112,4.0,11.0,53,0.00,,,0.00,Wunderground v.1.15,2013-10-09 03:57:00,
2013-10-08 22:01:00,42.0,26.1,29.71,ESE,123,8.0,9.0,53,0.00,,,0.00,Wunderground v.1.15,2013-10-09 04:01:00,
2013-10-08 22:02:00,41.9,26.0,29.71,ESE,118,8.0,10.0,53,0.00,,,0.00,Wunderground v.1.15,2013-10-09 04:02:00,
2013-10-08 22:07:00,41.9,26.0,29.71,ESE,119,11.0,11.0,53,0.00,,,0.00,Wunderground v.1.15,2013-10-09 04:07:00,
2013-10-08 22:12:00,41.7,25.8,29.71,SE,136,4.0,9.0,53,0.00,,,0.00,Wunderground v.1.15,2013-10-09 04:12:00,
2013-10-08 22:17:00,41.5,26.1,29.71,SSE,152,3.0,9.0,54,0.00,,,0.00,Wunderground v.1.15,2013-10-09 04:17:00,
2013-10-08 22:22:00,41.2,25.8,29.72,SSE,155,0.0,5.0,54,0.00,,,0.00,Wunderground v.1.15,2013-10-09 04:22:00,
2013-10-08 22:27:00,40.9,26.0,29.72,SSE,158,3.0,6.0,55,0.00,,,0.00,Wunderground v.1.15,2013-10-09 04:27:00,
2013-10-08 22:32:00,40.7,25.8,29.72,SSE,153,3.0,7.0,55,0.00,,,0.00,Wunderground v.1.15,2013-10-09 04:32:00,
2013-10-08 22:37:00,40.5,26.0,29.72,SSE,159,3.0,7.0,56,0.00,,,0.00,Wunderground v.1.15,2013-10-09 04:37:00,
2013-10-08 22:42:00,40.2,25.7,29.72,SSE,153,2.0,8.0,56,0.00,,,0.00,Wunderground v.1.15,2013-10-09 04:42:00,
2013-10-08 22:47:00,40.1,26.1,29.72,SSE,161,4.0,8.0,57,0.00,,,0.00,Wunderground v.1.15,2013-10-09 04:47:00,
2013-10-08 22:52:00,39.9,25.9,29.72,SE,132,1.0,7.0,57,0.00,,,0.00,Wunderground v.1.15,2013-10-09 04:52:00,
2013-10-08 22:57:00,39.7,26.1,29.72,SSE,150,1.0,7.0,58,0.00,,,0.00,Wunderground v.1.15,2013-10-09 04:57:00,
2013-10-08 23:02:00,39.5,25.9,29.72,SSE,154,2.0,5.0,58,0.00,,,0.00,Wunderground v.1.15,2013-10-09 05:02:00,
2013-10-08 23:07:00,39.3,25.7,29.73,East,99,1.0,7.0,58,0.00,,,0.00,Wunderground v.1.15,2013-10-09 05:07:00,
2013-10-08 23:12:00,39.2,25.6,29.73,SE,141,3.0,5.0,58,0.00,,,0.00,Wunderground v.1.15,2013-10-09 05:12:00,
2013-10-08 23:17:00,39.1,26.0,29.73,SE,142,4.0,5.0,59,0.00,,,0.00,Wunderground v.1.15,2013-10-09 05:17:00,
2013-10-08 23:22:00,39.0,25.9,29.73,SE,144,1.0,8.0,59,0.00,,,0.00,Wunderground v.1.15,2013-10-09 05:22:00,
2013-10-08 23:27:00,39.1,26.0,29.73,SSE,167,2.0,10.0,59,0.00,,,0.00,Wunderground v.1.15,2013-10-09 05:27:00,
2013-10-08 23:32:00,39.1,26.0,29.73,SE,141,6.0,8.0,59,0.00,,,0.00,Wunderground v.1.15,2013-10-09 05:32:00,
2013-10-08 23:37:00,38.9,25.8,29.72,SE,136,1.0,8.0,59,0.00,,,0.00,Wunderground v.1.15,2013-10-09 05:37:00,
2013-10-08 23:42:00,38.8,25.7,29.72,SE,146,3.0,6.0,59,0.00,,,0.00,Wunderground v.1.15,2013-10-09 05:42:00,
2013-10-08 23:47:00,38.6,25.9,29.72,ESE,117,2.0,10.0,60,0.00,,,0.00,Wunderground v.1.15,2013-10-09 05:47:00,
2013-10-08 23:52:00,38.4,25.7,29.72,East,97,3.0,7.0,60,0.00,,,0.00,Wunderground v.1.15,2013-10-09 05:52:00,
2013-10-08 23:57:00,38.2,25.9,29.72,ESE,119,4.0,9.0,61,0.00,,,0.00,Wunderground v.1.15,2013-10-09 05:57:00,